SARSAT 10 (NOAA 18)

Last updated on Fri Aug 22 2025 00:02:33 GMT+0000 (Coordinated Universal Time)

1 28654U 05018A 25232.88830689 .00000072 00000+0 61789-4 0 9996 2 28654 98.8395 311.5431 0013143 285.1851 74.7868 14.13628502 43884

Satellite not in orbit

SARSAT 10 (NOAA 18)